Time,TemperatureF,DewpointF,PressureIn,WindDirection,WindDirectionDegrees,WindSpeedMPH,WindSpeedGustMPH,Humidity,HourlyPrecipIn,Conditions,Clouds,dailyrainin,SoftwareType,DateUTC
2013-04-29 00:21:00,59.0,58.0,29.90,SSW,200,1.0,-999.0,96,0.00,,,-99.99,,2013-04-29 07:21:00,
2013-04-29 00:32:00,59.0,58.0,29.90,SSW,200,1.0,-999.0,96,0.00,,,-99.99,,2013-04-29 07:32:00,
2013-04-29 00:41:00,59.0,58.0,29.90,SSW,200,1.0,-999.0,96,0.00,,,-99.99,,2013-04-29 07:41:00,
2013-04-29 01:21:00,59.0,58.0,29.90,SE,140,1.0,-999.0,96,0.00,,,-99.99,,2013-04-29 08:21:00,
2013-04-29 01:31:00,59.0,58.0,29.90,SE,140,1.0,-999.0,96,0.00,,,-99.99,,2013-04-29 08:31:00,
2013-04-29 01:42:00,59.0,58.0,29.90,SE,140,1.0,-999.0,96,0.00,,,-99.99,,2013-04-29 08:42:00,
2013-04-29 02:21:00,59.0,58.0,29.89,North,0,0.0,-999.0,96,0.00,,,-99.99,,2013-04-29 09:21:00,
2013-04-29 02:32:00,59.0,58.0,29.89,North,0,0.0,-999.0,96,0.00,,,-99.99,,2013-04-29 09:32:00,
2013-04-29 02:42:00,59.0,58.0,29.89,North,0,0.0,-999.0,96,0.00,,,-99.99,,2013-04-29 09:42:00,
2013-04-29 03:23:00,59.0,58.0,29.88,SE,140,4.0,-999.0,96,0.00,,,-99.99,,2013-04-29 10:23:00,
2013-04-29 03:32:00,59.0,58.0,29.88,SE,140,4.0,-999.0,96,0.00,,,-99.99,,2013-04-29 10:32:00,
2013-04-29 03:42:00,59.0,58.0,29.88,SE,140,4.0,-999.0,96,0.00,,,-99.99,,2013-04-29 10:42:00,
2013-04-29 04:21:00,59.0,58.0,29.87,East,80,1.0,-999.0,95,0.00,,,-99.99,,2013-04-29 11:21:00,
2013-04-29 04:32:00,59.0,58.0,29.87,East,80,1.0,-999.0,95,0.00,,,-99.99,,2013-04-29 11:32:00,
2013-04-29 04:41:00,59.0,58.0,29.87,East,80,1.0,-999.0,95,0.00,,,-99.99,,2013-04-29 11:41:00,
2013-04-29 05:22:00,59.0,58.0,29.87,North,0,0.0,-999.0,95,0.00,,,-99.99,,2013-04-29 12:22:00,
2013-04-29 05:31:00,59.0,58.0,29.87,North,0,0.0,-999.0,95,0.00,,,-99.99,,2013-04-29 12:31:00,
2013-04-29 05:41:00,59.0,58.0,29.87,North,0,0.0,-999.0,95,0.00,,,-99.99,,2013-04-29 12:41:00,
2013-04-29 06:21:00,59.0,58.0,29.87,North,0,0.0,-999.0,95,0.00,,,-99.99,,2013-04-29 13:21:00,
2013-04-29 06:31:00,59.0,58.0,29.87,North,0,0.0,-999.0,95,0.00,,,-99.99,,2013-04-29 13:31:00,
2013-04-29 06:42:00,59.0,58.0,29.87,North,0,0.0,-999.0,95,0.00,,,-99.99,,2013-04-29 13:42:00,
2013-04-29 07:21:00,59.0,57.0,29.88,North,0,0.0,-999.0,94,0.00,,,-99.99,,2013-04-29 14:21:00,
2013-04-29 07:32:00,59.0,57.0,29.88,North,0,0.0,-999.0,94,0.00,,,-99.99,,2013-04-29 14:32:00,
2013-04-29 07:42:00,59.0,57.0,29.88,North,0,0.0,-999.0,94,0.00,,,-99.99,,2013-04-29 14:42:00,
2013-04-29 08:21:00,59.0,57.0,29.89,SE,130,1.0,-999.0,93,0.00,,,-99.99,,2013-04-29 15:21:00,
2013-04-29 08:33:00,59.0,57.0,29.89,SE,130,1.0,-999.0,93,0.00,,,-99.99,,2013-04-29 15:33:00,
2013-04-29 08:42:00,59.0,57.0,29.89,SE,130,1.0,-999.0,93,0.00,,,-99.99,,2013-04-29 15:42:00,
2013-04-29 09:23:00,60.0,58.0,29.89,SSW,200,1.0,-999.0,93,0.00,,,-99.99,,2013-04-29 16:23:00,
2013-04-29 09:32:00,60.0,58.0,29.89,SSW,200,1.0,-999.0,93,0.00,,,-99.99,,2013-04-29 16:32:00,
2013-04-29 09:42:00,60.0,58.0,29.89,SSW,200,1.0,-999.0,93,0.00,,,-99.99,,2013-04-29 16:42:00,
2013-04-29 10:22:00,59.0,57.0,29.90,SSW,210,5.0,-999.0,94,0.00,,,-99.99,,2013-04-29 17:22:00,
2013-04-29 10:32:00,59.0,57.0,29.90,SSW,210,5.0,-999.0,94,0.00,,,-99.99,,2013-04-29 17:32:00,
2013-04-29 10:42:00,59.0,57.0,29.90,SSW,210,5.0,-999.0,94,0.00,,,-99.99,,2013-04-29 17:42:00,
2013-04-29 11:22:00,59.0,57.0,29.90,SSW,210,6.0,-999.0,93,0.00,,,-99.99,,2013-04-29 18:22:00,
2013-04-29 11:31:00,59.0,57.0,29.90,SSW,210,6.0,-999.0,93,0.00,,,-99.99,,2013-04-29 18:31:00,
2013-04-29 11:42:00,59.0,57.0,29.90,SSW,210,6.0,-999.0,93,0.00,,,-99.99,,2013-04-29 18:42:00,
2013-04-29 12:21:00,61.0,58.0,29.89,SSW,210,6.0,-999.0,91,0.00,,,-99.99,,2013-04-29 19:21:00,
2013-04-29 12:31:00,61.0,58.0,29.89,SSW,210,6.0,-999.0,91,0.00,,,-99.99,,2013-04-29 19:31:00,
2013-04-29 12:41:00,61.0,58.0,29.89,SSW,210,6.0,-999.0,91,0.00,,,-99.99,,2013-04-29 19:41:00,
2013-04-29 13:21:00,63.0,59.0,29.87,SSW,210,7.0,-999.0,87,0.00,,,-99.99,,2013-04-29 20:21:00,
2013-04-29 13:32:00,63.0,59.0,29.87,SSW,210,7.0,-999.0,87,0.00,,,-99.99,,2013-04-29 20:32:00,
2013-04-29 13:42:00,63.0,59.0,29.87,SSW,210,7.0,-999.0,87,0.00,,,-99.99,,2013-04-29 20:42:00,
2013-04-29 14:21:00,65.0,59.0,29.86,SSW,210,2.0,-999.0,82,0.00,,,-99.99,,2013-04-29 21:21:00,
2013-04-29 14:33:00,65.0,59.0,29.86,SSW,210,2.0,-999.0,82,0.00,,,-99.99,,2013-04-29 21:33:00,
2013-04-29 14:42:00,65.0,59.0,29.86,SSW,210,2.0,-999.0,82,0.00,,,-99.99,,2013-04-29 21:42:00,
2013-04-29 15:23:00,65.0,59.0,29.84,SSW,200,3.0,-999.0,80,0.00,,,-99.99,,2013-04-29 22:23:00,
2013-04-29 15:32:00,65.0,59.0,29.84,SSW,200,3.0,-999.0,80,0.00,,,-99.99,,2013-04-29 22:32:00,
2013-04-29 15:42:00,65.0,59.0,29.84,SSW,200,3.0,-999.0,80,0.00,,,-99.99,,2013-04-29 22:42:00,
2013-04-29 16:22:00,64.0,58.0,29.82,SSW,210,7.0,-999.0,82,0.00,,,-99.99,,2013-04-29 23:22:00,
2013-04-29 16:32:00,64.0,58.0,29.82,SSW,210,7.0,-999.0,82,0.00,,,-99.99,,2013-04-29 23:32:00,
2013-04-29 16:42:00,64.0,58.0,29.82,SSW,210,7.0,-999.0,82,0.00,,,-99.99,,2013-04-29 23:42:00,
2013-04-29 17:21:00,64.0,58.0,29.81,SSW,210,4.0,-999.0,82,0.00,,,-99.99,,2013-04-30 00:21:00,
2013-04-29 17:32:00,64.0,58.0,29.81,SSW,210,4.0,-999.0,82,0.00,,,-99.99,,2013-04-30 00:32:00,
2013-04-29 17:41:00,64.0,58.0,29.81,SSW,210,4.0,-999.0,82,0.00,,,-99.99,,2013-04-30 00:41:00,
2013-04-29 19:21:00,61.0,57.0,29.79,SSW,200,1.0,-999.0,87,0.00,,,-99.99,,2013-04-30 02:21:00,
2013-04-29 19:31:00,61.0,57.0,29.79,SSW,200,1.0,-999.0,87,0.00,,,-99.99,,2013-04-30 02:31:00,
2013-04-29 19:41:00,61.0,57.0,29.79,SSW,200,1.0,-999.0,87,0.00,,,-99.99,,2013-04-30 02:41:00,
2013-04-29 23:21:00,60.0,57.0,29.85,SE,130,5.0,-999.0,89,0.00,,,-99.99,,2013-04-30 06:21:00,
2013-04-29 23:31:00,60.0,57.0,29.85,SE,130,5.0,-999.0,89,0.00,,,-99.99,,2013-04-30 06:31:00,
2013-04-29 23:41:00,60.0,57.0,29.85,SE,130,5.0,-999.0,89,0.00,,,-99.99,,2013-04-30 06:41:00,